TimeCST,TemperatureF,Dew PointF,Humidity,Sea Level PressureIn,VisibilityMPH,Wind Direction,Wind SpeedMPH,Gust SpeedMPH,PrecipitationIn,Events,Conditions,WindDirDegrees,DateUTC
12:53 AM,46.0,44.1,93,30.09,10.0,Calm,Calm,-,N/A,,Clear,0,2012-11-07 06:53:00
1:53 AM,45.0,44.1,97,30.09,10.0,Calm,Calm,-,N/A,,Clear,0,2012-11-07 07:53:00
2:53 AM,45.0,44.1,97,30.07,9.0,Calm,Calm,-,N/A,,Clear,0,2012-11-07 08:53:00
3:53 AM,44.1,43.0,96,30.07,7.0,Calm,Calm,-,N/A,,Clear,0,2012-11-07 09:53:00
4:53 AM,46.0,44.1,93,30.08,10.0,West,4.6,-,N/A,,Clear,280,2012-11-07 10:53:00
5:53 AM,43.0,41.0,93,30.09,7.0,Calm,Calm,-,N/A,,Clear,0,2012-11-07 11:53:00
6:53 AM,46.9,45.0,93,30.11,9.0,WNW,4.6,-,N/A,,Clear,290,2012-11-07 12:53:00
7:53 AM,53.1,46.9,80,30.12,10.0,WNW,3.5,-,N/A,,Clear,300,2012-11-07 13:53:00
8:53 AM,59.0,46.9,64,30.12,10.0,WNW,3.5,-,N/A,,Clear,290,2012-11-07 14:53:00
9:53 AM,64.0,41.0,43,30.12,10.0,Variable,6.9,-,N/A,,Clear,0,2012-11-07 15:53:00
10:53 AM,66.9,39.9,37,30.10,10.0,NNW,6.9,-,N/A,,Clear,340,2012-11-07 16:53:00
11:53 AM,68.0,37.9,33,30.08,10.0,NW,11.5,16.1,N/A,,Clear,320,2012-11-07 17:53:00
12:53 PM,70.0,39.0,32,30.06,10.0,NNW,8.1,-,N/A,,Clear,330,2012-11-07 18:53:00
1:53 PM,70.0,37.9,31,30.04,10.0,NNW,11.5,16.1,N/A,,Clear,340,2012-11-07 19:53:00
2:53 PM,70.0,37.9,31,30.03,10.0,NW,8.1,19.6,N/A,,Clear,310,2012-11-07 20:53:00
3:53 PM,69.1,33.1,26,30.04,10.0,NNW,6.9,-,N/A,,Clear,340,2012-11-07 21:53:00
4:53 PM,66.0,32.0,28,30.05,10.0,NNW,5.8,-,N/A,,Clear,330,2012-11-07 22:53:00
5:53 PM,57.0,37.0,47,30.07,10.0,Calm,Calm,-,N/A,,Clear,0,2012-11-07 23:53:00
6:53 PM,53.1,39.0,59,30.09,10.0,Calm,Calm,-,N/A,,Clear,0,2012-11-08 00:53:00
7:53 PM,50.0,42.1,74,30.12,10.0,Calm,Calm,-,N/A,,Clear,0,2012-11-08 01:53:00
8:53 PM,48.0,41.0,77,30.13,10.0,Calm,Calm,-,N/A,,Clear,0,2012-11-08 02:53:00
9:53 PM,48.0,39.0,71,30.15,10.0,NE,4.6,-,N/A,,Clear,40,2012-11-08 03:53:00
10:53 PM,50.0,37.9,63,30.17,10.0,NNE,4.6,-,N/A,,Clear,30,2012-11-08 04:53:00
11:53 PM,45.0,37.9,76,30.18,10.0,Calm,Calm,-,N/A,,Clear,0,2012-11-08 05:53:00